Location: Newark
(11.0000°N, 122.6717°E)
Time: 04:16:19
(UTC+00:00)

Envisat - Visible Passes

Search period start: 14 December 2019 00:00
Search period end: 24 December 2019 00:00
Orbit: 764 x 766 km, 98.1° (Epoch: 13 December)

Date Brightness Start Highest point End Pass type
(mag) Time Alt. Az. Time Alt. Az. Time Alt. Az.
14 Dec 2.9 09:58:54 10° SSE 10:03:57 71° ENE 10:08:59 10° N visible
15 Dec 5.7 11:02:29 10° SW 11:06:07 20° W 11:09:44 10° NW visible
16 Dec 3.8 10:24:25 10° S 10:29:22 55° WSW 10:34:20 10° NNW visible
16 Dec 6.3 21:13:32 10° ENE 21:15:35 12° E 21:17:38 10° ESE visible
17 Dec 3.2 09:47:48 10° SSE 09:52:41 51° ENE 09:57:36 10° N visible
18 Dec 5.2 10:50:37 10° SSW 10:54:50 27° W 10:59:04 10° NW visible
18 Dec 5.6 21:36:53 10° NE 21:41:04 26° E 21:45:15 10° SSE visible
19 Dec 3.2 10:13:03 10° S 10:18:07 76° WSW 10:23:11 10° NNW visible
20 Dec 6.1 11:18:09 10° SW 11:20:19 13° W 11:22:30 10° WNW visible
21 Dec 4.6 10:38:57 10° SSW 10:43:33 36° W 10:48:11 10° NW visible
21 Dec 5.9 21:26:13 10° NE 21:29:47 19° E 21:33:21 10° SE visible
22 Dec 2.9 10:01:47 10° SSE 10:06:51 80° ENE 10:11:55 10° N visible
23 Dec 5.8 11:05:43 10° SW 11:09:02 18° W 11:12:21 10° WNW visible
